Torna al catalogo

K-HERO

AttivoScienzaSSO
NORAD 66651·PAYLOAD·🇰🇷 South Korea
Questo nome del satellite non è ancora stato confermato da fonti ufficiali.

Lanciato Nov 26, 2025 da Naro Space Center

Loading…

Prossimi Passaggi (prossime 24 ore)

TLE

AggiornatoSource: Space-Track

Epoca: Sep 14, 2026, 13:36 UTC

1 66651U 25274B   26257.56733974  .00002191  00000-0  21267-3 0  9994
2 66651  97.7470 185.3907 0013434  58.5214 301.7317 14.93607222 43558

Traccia K-HERO in tempo reale con AllMySat

Download on the App Store